Weather History for Philip, SD

Change the Weather History Date:

Saturday, September 8, 2012

  Actual Average Record
Temperature  
Mean Temperature 67 °F 66 °F  
Max Temperature 88 °F 81 °F 105 °F (1959)
Min Temperature 45 °F 50 °F 36 °F (1992)
Degree Days  
Heating Degree Days 0 3  
Month to date heating degree days 3 20  
Since 1 July heating degree days 8 45  
Cooling Degree Days 2 4  
Month to date cooling degree days 60 38  
Year to date cooling degree days 1171 773  
Growing Degree Days 16 (Base 50)    
Moisture  
Dew Point 35 °F    
Average Humidity 37    
Maximum Humidity 58    
Minimum Humidity 16    
Precipitation  
Precipitation 0.00 in 0.05 in 0.46 in (1989)
Month to date precipitation T 0.40  
Year to date precipitation 5.99 13.78  
Sea Level Pressure  
Sea Level Pressure 30.15 in    
Wind  
Wind Speed 11 mph (NW)    
Max Wind Speed 25 mph    
Max Gust Speed 33 mph    
Visibility 10 miles    
Events      
T = Trace of Precipitation, MM = Missing Value Source: NWS Daily Summary

Daily Weather History Graph

Daily Weather History Graph

Search for Another Location

Airport:

Trip Planner

Search our weather history database for the weather conditions in past years. The results will help you decide how hot, cold, wet, or windy it might be!

Date:

Astronomy

Sep. 08, 2012 Rise Set
Actual Time 6:18 AM MDT 7:08 PM MDT
Civil Twilight 5:48 AM MDT 7:37 PM MDT
Nautical Twilight 5:13 AM MDT 8:12 PM MDT
Astronomical Twilight 4:37 AM MDT 8:48 PM MDT
Moon 11:40 PM MDT (9/8) 2:16 PM MDT (9/8)
Length of Visible Light 13h 49m
Length of Day
12h 50m
Waning Gibbous, 48% of the Moon is Illuminated
Sep 8
Waning Gibbous
Sep 15
New
Sep 22
First Quarter
Sep 29
Full
Oct 8
Last Quarter

Hourly Weather History & Observations

Time (MDT) Temp. Windchill Dew Point Humidity Pressure Visibility Wind Dir Wind Speed Gust Speed Precip Events Conditions
12:55 AM 48.0 °F - 32.0 °F 54% 30.20 in 10.0 mi West 10.4 mph - N/A   Clear
1:55 AM 46.0 °F 41.9 °F 32.0 °F 58% 30.19 in 10.0 mi West 8.1 mph - N/A   Clear
2:55 AM 46.9 °F - 32.0 °F 56% 30.18 in 10.0 mi West 9.2 mph - N/A   Clear
3:55 AM 48.0 °F - 32.0 °F 54% 30.17 in 10.0 mi West 8.1 mph - N/A   Clear
4:55 AM 48.9 °F - 33.1 °F 54% 30.17 in 10.0 mi West 11.5 mph - N/A   Clear
5:55 AM 48.0 °F - 34.0 °F 58% 30.17 in 10.0 mi West 10.4 mph - N/A   Clear
6:55 AM 48.9 °F - 34.0 °F 56% 30.18 in 10.0 mi West 12.7 mph - N/A   Clear
7:55 AM 57.0 °F - 37.0 °F 47% 30.18 in 10.0 mi West 12.7 mph - N/A   Clear
8:55 AM 66.0 °F - 37.9 °F 36% 30.17 in 10.0 mi West 9.2 mph - N/A   Clear
9:52 AM 77.0 °F - 37.4 °F 24% 30.18 in 10.0 mi NW 19.6 mph 25.3 mph N/A   Clear
9:55 AM 77.0 °F - 37.9 °F 24% 30.14 in 10.0 mi NW 19.6 mph 26.5 mph N/A   Clear
10:55 AM 79.0 °F - 37.9 °F 23% 30.14 in 10.0 mi NW 16.1 mph 26.5 mph N/A   Clear
11:55 AM 82.0 °F - 37.0 °F 20% 30.13 in 10.0 mi NW 13.8 mph 26.5 mph N/A   Clear
12:55 PM 84.9 °F - 34.0 °F 16% 30.10 in 10.0 mi NNW 16.1 mph 25.3 mph N/A   Clear
1:55 PM 84.9 °F - 35.1 °F 17% 30.09 in 10.0 mi NNW 16.1 mph 25.3 mph N/A   Clear
2:55 PM 86.0 °F - 36.0 °F 17% 30.07 in 10.0 mi NNW 21.9 mph 28.8 mph N/A   Clear
3:55 PM 84.9 °F - 39.0 °F 20% 30.07 in 10.0 mi North 18.4 mph 28.8 mph N/A   Clear
4:55 PM 82.9 °F - 43.0 °F 24% 30.08 in 10.0 mi North 18.4 mph 26.5 mph N/A   Clear
5:55 PM 79.0 °F - 42.1 °F 27% 30.10 in 10.0 mi NNE 18.4 mph 26.5 mph N/A   Clear
6:55 PM 73.9 °F - 39.0 °F 28% 30.12 in 10.0 mi NE 12.7 mph - N/A   Clear
7:55 PM 66.0 °F - 30.9 °F 27% 30.15 in 10.0 mi NE 10.4 mph - N/A   Clear
8:55 PM 59.0 °F - 28.9 °F 32% 30.17 in 10.0 mi East 5.8 mph - N/A   Clear
9:55 PM 55.9 °F - 28.0 °F 34% 30.17 in 10.0 mi ENE 4.6 mph - N/A   Clear
10:55 PM 52.0 °F - 28.0 °F 40% 30.19 in 10.0 mi Calm Calm - N/A   Clear
11:55 PM 48.9 °F - 28.0 °F 44% 30.19 in 10.0 mi Calm Calm - N/A   Clear